Cloud_Cover
0 0 0 0 0 0 0 0 0 0 0 0 0 0 0 0 0 0 0 0 5 5 5 86 99 99 92 25 0 0 0 0 0 0 4 16 5 5 0 0 0 0 0 0
0 0 0 0 0 0 0 0 0 0 0 0 0 0 0 0 0 0 0 0 2 6 77 92 98 58 57 5 0 0 3 4 1 47 90 84 0 0 0 0 0 0 0 0
0 0 0 0 0 0 0 0 0 0 0 0 0 0 0 0 0 0 0 0 4 7 100 100 100 90 8 3 0 5 10 27 5 29 58 4 4 5 0 0 0 0 0 0
0 0 0 0 0 0 0 0 0 0 0 0 0 0 0 0 0 0 0 1 5 5 10 38 5 25 8 1 5 7 96 43 5 5 5 5 1 0 0 0 0 0 0 0
0 0 0 0 0 0 0 0 0 0 0 0 0 0 0 0 0 0 0 0 0 0 0 5 5 5 6 7 5 88 87 75 5 5 5 5 1 0 0 0 0 0 0 4
0 0 0 0 0 0 0 0 0 0 0 0 0 0 0 0 0 2 5 4 5 5 5 5 5 45 29 91 19 47 99 7 15 5 5 5 0 0 0 0 0 1 2 5
0 0 0 0 0 0 0 0 0 0 0 0 0 0 0 2 2 5 5 5 5 17 5 5 5 5 5 87 45 37 90 8 7 5 0 0 0 0 0 0 4 5 38 70
5 2 0 0 0 0 0 0 0 0 0 0 0 0 0 5 5 4 5 5 5 5 5 5 5 5 25 34 42 60 11 5 4 0 0 0 0 0 2 0 4 21 75 100
5 10 5 0 0 0 0 0 2 1 0 3 5 5 4 4 5 5 5 5 5 5 5 8 32 70 100 94 35 12 5 1 0 0 0 0 4 5 64 6 38 61 5 76
89 99 63 5 5 5 5 5 5 5 5 4 0 0 0 0 0 5 3 9 56 26 66 62 85 93 49 12 5 3 5 0 0 0 0 0 5 10 51 2 0 16 97 100
52 62 52 5 5 5 5 5 5 5 5 5 5 6 0 0 4 5 5 6 6 17 17 5 7 4 4 5 5 5 5 0 0 1 11 99 100 38 0 0 10 10 100 100
100 54 12 5 5 5 5 5 5 5 5 27 92 98 5 5 5 5 5 5 5 5 5 5 2 2 5 5 5 5 2 0 0 5 6 0 0 0 0 0 5 7 88 100
35 26 5 5 5 5 6 48 24 47 100 100 100 100 79 5 8 7 8 5 12 6 28 5 5 5 5 8 6 0 0 0 0 0 0 0 0 0 0 0 6 8 100 100
22 8 5 5 5 14 38 58 56 5 28 48 47 61 18 6 55 94 99 73 72 51 52 22 5 5 5 11 3 0 0 3 4 5 1 0 0 0 0 0 100 100 100 100
100 100 90 5 5 5 5 5 5 0 0 1 5 5 11 24 5 8 30 71 84 85 22 5 9 10 8 3 3 1 2 5 5 5 5 4 0 0 0 14 100 100 100 100
100 100 100 100 97 30 74 62 33 6 5 6 5 5 5 5 5 33 73 76 32 6 53 91 99 97 24 5 5 3 2 60 42 5 5 5 0 0 2 39 100 100 100 100
100 100 100 100 100 100 100 100 58 92 100 100 42 30 5 8 23 19 89 91 79 79 97 99 96 94 5 5 2 4 88 72 33 91 49 5 3 0 4 98 100 100 100 100
96 100 100 100 82 100 100 99 93 73 100 100 82 16 5 8 37 27 23 39 73 100 100 100 100 58 34 91 5 5 91 26 5 22 13 5 44 6 50 100 100 100 100 100
100 100 100 100 100 56 100 100 70 7 95 9 5 5 6 20 72 8 52 68 100 100 100 99 23 72 100 79 5 44 78 49 8 5 5 5 5 19 100 100 100 100 100 100
33 83 39 5 6 18 100 100 99 14 87 6 5 5 5 7 60 9 17 82 70 100 78 14 55 67 64 3 5 5 6 5 21 54 8 5 19 100 100 100 100 90 100 85
5 5 68 5 5 5 98 100 100 100 97 89 57 38 5 8 5 16 72 43 98 66 89 50 3 0 5 1 1 7 8 4 7 5 5 59 100 100 100 84 100 100 100 100
5 4 5 5 5 12 92 85 89 16 32 49 10 22 71 94 98 100 100 100 100 93 10 0 0 0 90 9 52 5 2 0 3 7 100 100 100 100 88 100 100 100 100 100
0 0 0 0 0 3 5 6 30 76 16 30 94 100 100 100 100 53 100 100 21 2 0 0 18 85 86 17 31 3 1 0 4 100 100 100 100 27 100 100 100 100 100 100
0 0 0 0 0 0 1 6 87 100 100 100 100 100 100 100 100 100 60 4 0 0 0 0 84 60 18 0 0 0 0 5 75 100 90 100 25 21 96 100 100 100 100 100
0 0 0 0 1 5 54 97 100 100 100 100 100 100 100 100 73 1 0 0 5 0 0 5 5 3 0 0 1 0 1 58 100 100 78 98 100 99 68 72 100 100 100 100
0 0 0 0 0 6 43 92 99 100 100 90 100 100 46 0 0 0 0 2 5 0 0 5 3 0 0 1 0 0 48 100 87 96 100 100 100 100 61 93 95 73 100 100